Iron Mountain, MI

3:41 AM CDT on April 21, 2018 (GMT -0500)
Ford

Weather History for KIMT - October, 2012

Change the Weather History Date:

Tuesday, October 9, 2012

  Actual Average Record
Temperature  
Mean Temperature 44 °F -  
Max Temperature 52 °F 56 °F 84 °F (2011)
Min Temperature 37 °F 36 °F 17 °F (1989)
Degree Days  
Heating Degree Days 20    
Moisture  
Dew Point 39 °F    
Average Humidity 79    
Maximum Humidity 93    
Minimum Humidity 45    
Precipitation  
Precipitation 0.04 in - - ()
Sea Level Pressure  
Sea Level Pressure 29.70 in    
Wind  
Wind Speed 8 mph (SW)    
Max Wind Speed 15 mph    
Max Gust Speed 24 mph    
Visibility 8 miles    
Events Rain    
Averages and records for this station are not official NWS values.
T = Trace of Precipitation, MM = Missing Value Source: NWS Daily Summary

Daily Weather History Graph

Daily Weather History Graph

Search for Another Location

Airport or City:

Astronomy

Oct. 09, 2012 Rise Set
Actual Time 7:01 AM CDT 6:16 PM CDT
Civil Twilight 6:31 AM CDT 6:46 PM CDT
Nautical Twilight 5:57 AM CDT 7:20 PM CDT
Astronomical Twilight 5:22 AM CDT 7:55 PM CDT
Moon 12:19 AM CDT (10/9) 3:00 PM CDT (10/9)
Length of Visible Light 12h 14m
Length of Day
11h 14m
Last Quarter, 36% of the Moon is Illuminated
Oct 9
Last Quarter
Oct 15
New
Oct 21
First Quarter
Oct 29
Full
Nov 6
Last Quarter

Hourly Weather History & Observations

Time (CDT) Temp. Windchill Dew Point Humidity Pressure Visibility Wind Dir Wind Speed Gust Speed Precip Events Conditions
12:54 AM 52.0 °F - 30.9 °F 45% 29.69 in 10.0 mi South 13.8 mph - N/A   Mostly Cloudy
1:54 AM 52.0 °F - 30.9 °F 45% 29.69 in 10.0 mi South 12.7 mph - N/A   Overcast
3:54 AM 50.0 °F - 32.0 °F 50% 29.68 in 10.0 mi South 8.1 mph - 0.00 in Rain Light Rain
4:54 AM 51.1 °F - 35.1 °F 54% 29.70 in 10.0 mi WSW 5.8 mph - 0.00 in   Scattered Clouds
5:54 AM 50.0 °F - 37.0 °F 61% 29.71 in 10.0 mi West 6.9 mph - N/A   Clear
6:54 AM 48.9 °F - 37.9 °F 66% 29.73 in 10.0 mi SW 5.8 mph - N/A   Scattered Clouds
7:54 AM 48.0 °F - 37.9 °F 68% 29.74 in 10.0 mi South 4.6 mph - N/A   Clear
8:54 AM 50.0 °F - 37.9 °F 63% 29.74 in 10.0 mi South 6.9 mph - N/A   Partly Cloudy
9:54 AM 51.1 °F - 39.0 °F 63% 29.73 in 10.0 mi South 6.9 mph - N/A   Overcast
10:54 AM 51.1 °F - 39.0 °F 63% 29.72 in 9.0 mi South 6.9 mph - 0.00 in Rain Light Rain
11:54 AM 48.9 °F - 44.1 °F 83% 29.71 in 8.0 mi South 8.1 mph - 0.00 in Rain Light Rain
12:45 PM 48.2 °F - 44.6 °F 87% 29.67 in 4.0 mi SW 5.8 mph - 0.00 in Rain Light Rain
12:54 PM 48.0 °F - 45.0 °F 89% 29.68 in 4.0 mi WNW 5.8 mph - 0.00 in Rain Light Rain
12:58 PM 46.4 °F 42.9 °F 44.6 °F 93% 29.66 in 5.0 mi WNW 6.9 mph - 0.00 in Rain Light Rain
1:15 PM 46.4 °F 45.2 °F 44.6 °F 93% 29.65 in 1.8 mi WSW 3.5 mph - 0.04 in Rain Rain
1:28 PM 46.4 °F 45.2 °F 44.6 °F 93% 29.65 in 3.0 mi SW 3.5 mph - 0.06 in Rain Light Rain
1:45 PM 48.2 °F - 44.6 °F 87% 29.65 in 5.0 mi Calm Calm - 0.06 in Rain Light Rain
2:15 PM 48.2 °F - 44.6 °F 87% 29.65 in 5.0 mi SSW 4.6 mph - 0.00 in Rain Light Rain
2:28 PM 48.2 °F - 44.6 °F 87% 29.64 in 4.0 mi SSW 4.6 mph - 0.01 in Rain Light Rain
2:37 PM 48.2 °F - 44.6 °F 87% 29.64 in 5.0 mi South 5.8 mph - 0.01 in Rain Light Rain
2:45 PM 46.4 °F 41.1 °F 42.8 °F 87% 29.65 in 4.0 mi West 11.5 mph 23.0 mph 0.02 in Rain Rain
2:54 PM 45.0 °F 38.2 °F 41.0 °F 86% 29.68 in 9.0 mi WNW 15.0 mph 24.2 mph 0.02 in Rain Light Rain
3:54 PM 43.0 °F 36.4 °F 39.0 °F 86% 29.69 in 6.0 mi West 12.7 mph 20.7 mph 0.00 in Rain Light Rain
4:02 PM 42.8 °F 36.2 °F 39.2 °F 87% 29.67 in 6.0 mi West 12.7 mph 20.7 mph 0.01 in Rain Light Rain
4:54 PM 39.9 °F 35.8 °F 36.0 °F 86% 29.70 in 10.0 mi WNW 5.8 mph - 0.02 in Rain Light Rain
5:54 PM 39.9 °F 37.8 °F 37.0 °F 89% 29.72 in 10.0 mi WSW 3.5 mph - 0.00 in   Clear
6:54 PM 39.0 °F 34.8 °F 36.0 °F 89% 29.73 in 10.0 mi West 5.8 mph - N/A   Scattered Clouds
7:54 PM 39.9 °F 34.5 °F 36.0 °F 86% 29.73 in 10.0 mi WSW 8.1 mph - N/A   Overcast
8:54 PM 39.0 °F 34.0 °F 36.0 °F 89% 29.74 in 10.0 mi WSW 6.9 mph - N/A   Mostly Cloudy
9:54 PM 37.9 °F 33.5 °F 35.1 °F 89% 29.74 in 10.0 mi Variable 5.8 mph - N/A   Scattered Clouds
10:54 PM 37.0 °F 33.3 °F 34.0 °F 89% 29.75 in 10.0 mi West 4.6 mph - N/A   Partly Cloudy
11:54 PM 37.0 °F 31.6 °F 33.1 °F 86% 29.76 in 10.0 mi West 6.9 mph - N/A   Mostly Cloudy